Location: Ffm
(50.0000°N, 8.5000°E)
Time: 09:28:39
(UTC+01:00)

Envisat - Pass Details

Date: 27 October 2020
Orbit: 764 x 766 km, 98.1° (Epoch: 03 December)

Event Time Altitude Azimuth Distance (km) Brightness Sun altitude
Rises 19:18:14 0° 227° (SW) 3,224 6.9 -21.0°
Reaches altitude 10° 19:23:30 10° 274° (W) 2,307 6.6 -21.8°
Maximum altitude 19:23:46 10° 277° (W) 2,305 6.6 -21.9°
Drops below altitude 10° 19:24:03 10° 280° (W) 2,308 6.6 -21.9°
Sets 19:29:22 0° 327° (NNW) 3,244 6.8 -22.8°
